Location: �couen
(49.0206°N, 2.3831°E)
Time: 22:56:35
(UTC+00:00)

Cosmos 1758 - Pass Details

Date: 01 June 2022
Orbit: 538 x 557 km, 82.5° (Epoch: 01 July)

Event Time Altitude Azimuth Distance (km) Brightness Sun altitude
Rises 23:22:57 0° 344° (NNW) 2,719 8.4 -18.6°
Reaches altitude 10° 23:25:12 10° 337° (NNW) 1,824 7.1 -18.6°
Maximum altitude 23:28:58 41° 267° (W) 799 4.1 -18.7°
Enters shadow 23:30:05 33° 227° (SW) 934 4.1 -18.7°
